• In Hungary
  • List of Countries
  • For 7 days
  • Water Temperature
  • Satellite Maps
  • Weather Map
  • News
  • Weather Widgets
  • user-avatar
    Login

    Hourly Weather Adelkino

    Today, 25 September, Tuesday

    Time Temperature Precipitation Wind Pressure Humidity
    00:00 +13°C° 0 mm 2 mps 731 mmHg 61%
    01:00 +12°C° 0 mm 3 mps 731 mmHg 62%
    02:00 +12°C° 0 mm 3 mps 731 mmHg 62%
    03:00 +12°C° 0 mm 3 mps 731 mmHg 62%
    04:00 +11°C° 0 mm 3 mps 731 mmHg 63%
    05:00 +11°C° 0 mm 3 mps 731 mmHg 64%
    06:00 +11°C° 0 mm 3 mps 731 mmHg 65%
    07:00 +11°C° 0 mm 3 mps 732 mmHg 66%
    08:00 +12°C° 0 mm 4 mps 732 mmHg 65%
    09:00 +14°C° 0 mm 5 mps 732 mmHg 65%
    10:00 +16°C° 0 mm 6 mps 732 mmHg 64%
    11:00 +16°C° 0 mm 7 mps 732 mmHg 62%
    12:00 +17°C° 0 mm 7 mps 732 mmHg 59%
    13:00 +18°C° 0 mm 7 mps 732 mmHg 57%
    14:00 +18°C° 0 mm 7 mps 732 mmHg 55%
    15:00 +18°C° 0 mm 7 mps 732 mmHg 53%
    16:00 +18°C° 0 mm 7 mps 732 mmHg 52%
    17:00 +16°C° 0 mm 6 mps 732 mmHg 55%
    18:00 +15°C° 0 mm 5 mps 731 mmHg 57%
    19:00 +14°C° 0 mm 4 mps 731 mmHg 60%
    20:00 +13°C° 0 mm 4 mps 731 mmHg 59%
    21:00 +13°C° 0 mm 4 mps 731 mmHg 58%
    22:00 +13°C° 0 mm 4 mps 731 mmHg 57%
    23:00 +13°C° 0 mm 4 mps 731 mmHg 57%

    Tomorrow, 26 September, Wednesday

    Time Temperature Precipitation Wind Pressure Humidity
    00:00 +13°C° 0 mm 5 mps 731 mmHg 57%
    01:00 +13°C° 0 mm 5 mps 731 mmHg 56%
    02:00 +13°C° 0 mm 6 mps 731 mmHg 55%
    03:00 +13°C° 0 mm 6 mps 731 mmHg 54%
    04:00 +13°C° 0 mm 6 mps 732 mmHg 53%
    05:00 +13°C° 0 mm 6 mps 732 mmHg 54%
    06:00 +13°C° 0 mm 6 mps 732 mmHg 54%
    07:00 +11°C° 0 mm 6 mps 732 mmHg 55%
    08:00 +13°C° 0 mm 6 mps 732 mmHg 54%
    09:00 +13°C° 0 mm 6 mps 733 mmHg 54%
    10:00 +14°C° 0 mm 6 mps 733 mmHg 54%
    11:00 +14°C° 0.3 mm 5 mps 733 mmHg 59%
    12:00 +13°C° 0.3 mm 4 mps 734 mmHg 63%
    13:00 +13°C° 0.3 mm 4 mps 734 mmHg 68%
    14:00 +12°C° 0.9 mm 4 mps 734 mmHg 75%
    15:00 +11°C° 0.9 mm 3 mps 734 mmHg 81%
    16:00 +10°C° 0.9 mm 3 mps 734 mmHg 88%
    17:00 +10°C° 0.7 mm 3 mps 734 mmHg 88%
    18:00 +9°C° 0.7 mm 3 mps 735 mmHg 89%
    19:00 +9°C° 0.7 mm 3 mps 735 mmHg 89%
    20:00 +9°C° 0.5 mm 3 mps 735 mmHg 90%
    21:00 +8°C° 0.5 mm 2 mps 735 mmHg 90%
    22:00 +8°C° 0.5 mm 2 mps 735 mmHg 90%
    23:00 +8°C° 0.4 mm 2 mps 735 mmHg 91%

    Day after tomorrow, 27 September, Thursday

    Time Temperature Precipitation Wind Pressure Humidity
    00:00 +8°C° 0.4 mm 2 mps 735 mmHg 91%
    01:00 +8°C° 0.4 mm 2 mps 735 mmHg 92%
    02:00 +8°C° 0.2 mm 3 mps 735 mmHg 92%
    03:00 +7°C° 0.2 mm 3 mps 735 mmHg 93%
    04:00 +7°C° 0.2 mm 3 mps 734 mmHg 93%
    05:00 +7°C° 0 mm 3 mps 734 mmHg 93%
    06:00 +5°C° 0 mm 3 mps 734 mmHg 92%
    07:00 +5°C° 0 mm 3 mps 734 mmHg 92%
    08:00 +6°C° 0 mm 4 mps 734 mmHg 86%
    09:00 +7°C° 0 mm 4 mps 734 mmHg 81%
    10:00 +7°C° 0 mm 5 mps 734 mmHg 75%
    11:00 +8°C° 0 mm 5 mps 734 mmHg 71%
    12:00 +8°C° 0 mm 6 mps 734 mmHg 68%
    13:00 +9°C° 0 mm 6 mps 733 mmHg 64%
    14:00 +9°C° 0 mm 7 mps 733 mmHg 61%
    15:00 +9°C° 0 mm 7 mps 732 mmHg 58%
    16:00 +9°C° 0 mm 7 mps 732 mmHg 55%
    17:00 +8°C° 0 mm 6 mps 732 mmHg 58%
    18:00 +7°C° 0 mm 5 mps 731 mmHg 60%
    19:00 +6°C° 0 mm 4 mps 731 mmHg 63%
    20:00 +6°C° 0 mm 5 mps 730 mmHg 61%
    21:00 +6°C° 0 mm 5 mps 730 mmHg 60%
    22:00 +5°C° 0 mm 6 mps 730 mmHg 58%
    23:00 +5°C° 0.1 mm 6 mps 729 mmHg 62%

    28 September, Friday

    Time Temperature Precipitation Wind Pressure Humidity
    00:00 +5°C° 0.1 mm 6 mps 728 mmHg 66%
    01:00 +4°C° 0.1 mm 6 mps 728 mmHg 69%
    02:00 +4°C° 0.4 mm 7 mps 727 mmHg 73%
    03:00 +3°C° 0.4 mm 7 mps 727 mmHg 77%
    04:00 +3°C° 0.4 mm 7 mps 726 mmHg 80%
    05:00 +3°C° 0.3 mm 7 mps 726 mmHg 83%
    06:00 +3°C° 0.3 mm 6 mps 726 mmHg 85%
    07:00 +3°C° 0.3 mm 6 mps 726 mmHg 87%
    08:00 +4°C° 0 mm 6 mps 727 mmHg 83%
    09:00 +5°C° 0 mm 6 mps 728 mmHg 80%
    10:00 +5°C° 0 mm 7 mps 728 mmHg 76%
    11:00 +6°C° 0 mm 7 mps 729 mmHg 71%
    12:00 +8°C° 0 mm 7 mps 729 mmHg 67%
    13:00 +8°C° 0 mm 7 mps 730 mmHg 62%
    14:00 +9°C° 0 mm 7 mps 730 mmHg 62%
    15:00 +9°C° 0 mm 7 mps 730 mmHg 61%
    16:00 +9°C° 0 mm 7 mps 730 mmHg 60%
    17:00 +8°C° 0 mm 6 mps 730 mmHg 64%
    18:00 +6°C° 0 mm 5 mps 731 mmHg 69%
    19:00 +5°C° 0 mm 4 mps 731 mmHg 74%
    20:00 +5°C° 0 mm 4 mps 731 mmHg 73%
    21:00 +5°C° 0 mm 4 mps 731 mmHg 73%
    22:00 +5°C° 0 mm 5 mps 731 mmHg 73%
    23:00 +5°C° 0 mm 5 mps 730 mmHg 70%

    29 September, Saturday

    Time Temperature Precipitation Wind Pressure Humidity
    00:00 +5°C° 0 mm 6 mps 729 mmHg 67%
    01:00 +5°C° 0 mm 7 mps 729 mmHg 63%
    02:00 +5°C° 0 mm 8 mps 728 mmHg 64%
    03:00 +5°C° 0 mm 9 mps 728 mmHg 65%
    04:00 +6°C° 0 mm 9 mps 728 mmHg 65%
    05:00 +6°C° 0 mm 9 mps 727 mmHg 67%
    06:00 +6°C° 0 mm 10 mps 727 mmHg 70%
    07:00 +6°C° 0 mm 10 mps 727 mmHg 72%
    08:00 +7°C° 0.4 mm 10 mps 727 mmHg 76%
    09:00 +7°C° 0.4 mm 9 mps 728 mmHg 80%
    10:00 +8°C° 0.4 mm 9 mps 728 mmHg 84%
    11:00 +9°C° 0.1 mm 8 mps 729 mmHg 81%
    12:00 +9°C° 0.1 mm 7 mps 730 mmHg 78%
    13:00 +9°C° 0.1 mm 6 mps 730 mmHg 75%
    14:00 +9°C° 0 mm 5 mps 731 mmHg 70%
    15:00 +10°C° 0 mm 5 mps 732 mmHg 66%
    16:00 +11°C° 0 mm 4 mps 732 mmHg 61%
    17:00 +8°C° 0 mm 4 mps 733 mmHg 65%
    18:00 +8°C° 0 mm 3 mps 733 mmHg 69%
    19:00 +6°C° 0 mm 2 mps 734 mmHg 73%
    20:00 +6°C° 0 mm 2 mps 734 mmHg 73%
    21:00 +5°C° 0 mm 2 mps 734 mmHg 73%
    22:00 +5°C° 0 mm 2 mps 735 mmHg 73%
    23:00 +5°C° 0 mm 2 mps 735 mmHg 73%

    30 September, Sunday

    Time Temperature Precipitation Wind Pressure Humidity
    00:00 +5°C° 0 mm 2 mps 735 mmHg 72%
    01:00 +5°C° 0 mm 2 mps 735 mmHg 71%
    02:00 +5°C° 0 mm 2 mps 735 mmHg 71%
    03:00 +4°C° 0 mm 2 mps 735 mmHg 72%
    04:00 +4°C° 0 mm 2 mps 736 mmHg 72%
    05:00 +4°C° 0 mm 2 mps 736 mmHg 73%
    06:00 +4°C° 0 mm 2 mps 736 mmHg 73%
    07:00 +4°C° 0 mm 2 mps 736 mmHg 73%
    08:00 +4°C° 0.1 mm 2 mps 736 mmHg 72%
    09:00 +5°C° 0.1 mm 2 mps 736 mmHg 71%
    10:00 +5°C° 0.1 mm 2 mps 736 mmHg 70%
    11:00 +5°C° 0.1 mm 2 mps 737 mmHg 68%
    12:00 +6°C° 0.1 mm 2 mps 737 mmHg 66%
    13:00 +5°C° 0.1 mm 3 mps 737 mmHg 64%
    14:00 +5°C° 0.1 mm 3 mps 737 mmHg 63%
    15:00 +5°C° 0.1 mm 3 mps 737 mmHg 63%
    16:00 +7°C° 0.1 mm 3 mps 737 mmHg 62%
    17:00 +6°C° 0 mm 2 mps 737 mmHg 66%
    18:00 +5°C° 0 mm 2 mps 737 mmHg 70%
    19:00 +4°C° 0 mm 2 mps 737 mmHg 73%
    20:00 +4°C° 0 mm 2 mps 737 mmHg 74%
    21:00 +4°C° 0 mm 2 mps 737 mmHg 74%
    22:00 +3°C° 0 mm 2 mps 738 mmHg 74%
    23:00 +3°C° 0 mm 2 mps 738 mmHg 75%
    Show more